contact: severine.martini@mio.osupytheas.fr, dominique.lefevre@mio.osupytheas.fr
Project:EMSO Ligure-ouest http://www.emso-fr.org/EMSO-France
Sensor Microcat Sea-Bird SBE37 SMP,  Serial 57510 
DOI : "https://doi.org/10.17882/97948" 
Title:EMSO Ligure Ouest : Data Bathybot capteur Microcat - deploiement 2023-04-28
Datetime,Profondeur,Latitude,Longitude,Temperature,Conductivite,Pression,Salinite
time,m,degree_north,degree_east,degree_C,S/m,db,PSU 
2023-12-13T00:00:49,2420,42.8014,5.9826,13.2984,4.59903,2453.582,38.4860
2023-12-13T00:03:49,2420,42.8014,5.9826,13.2983,4.59902,2453.582,38.4859
2023-12-13T00:06:49,2420,42.8014,5.9826,13.2981,4.59905,2453.559,38.4864
2023-12-13T00:09:49,2420,42.8014,5.9826,13.2979,4.59904,2453.582,38.4865
2023-12-13T00:12:49,2420,42.8014,5.9826,13.2982,4.59904,2453.582,38.4863
2023-12-13T00:15:49,2420,42.8014,5.9826,13.2983,4.59904,2453.559,38.4861
2023-12-13T00:18:49,2420,42.8014,5.9826,13.2982,4.59903,2453.559,38.4861
2023-12-13T00:21:49,2420,42.8014,5.9826,13.2977,4.59903,2453.537,38.4866
2023-12-13T00:24:49,2420,42.8014,5.9826,13.2982,4.59903,2453.559,38.4862
2023-12-13T00:27:49,2420,42.8014,5.9826,13.2984,4.59903,2453.537,38.4859
2023-12-13T00:30:49,2420,42.8014,5.9826,13.2982,4.59904,2453.559,38.4863
2023-12-13T00:33:49,2420,42.8014,5.9826,13.2981,4.59903,2453.559,38.4862
2023-12-13T00:36:49,2420,42.8014,5.9826,13.2978,4.59903,2453.559,38.4865
2023-12-13T00:39:49,2420,42.8014,5.9826,13.2981,4.59905,2453.559,38.4864
2023-12-13T00:42:49,2420,42.8014,5.9826,13.2979,4.59904,2453.559,38.4866
2023-12-13T00:45:49,2420,42.8014,5.9826,13.2978,4.59905,2453.537,38.4868
2023-12-13T00:48:49,2420,42.8014,5.9826,13.2978,4.59905,2453.537,38.4867
2023-12-13T00:51:49,2420,42.8014,5.9826,13.2981,4.59905,2453.582,38.4864
2023-12-13T00:54:49,2420,42.8014,5.9826,13.2979,4.59903,2453.559,38.4864
2023-12-13T00:57:49,2420,42.8014,5.9826,13.2979,4.59903,2453.559,38.4864
2023-12-13T01:00:49,2420,42.8014,5.9826,13.2979,4.59904,2453.537,38.4865
2023-12-13T01:03:49,2420,42.8014,5.9826,13.2980,4.59904,2453.559,38.4864
2023-12-13T01:06:49,2420,42.8014,5.9826,13.2979,4.59903,2453.582,38.4865
2023-12-13T01:09:49,2420,42.8014,5.9826,13.2979,4.59904,2453.582,38.4865
2023-12-13T01:12:49,2420,42.8014,5.9826,13.2984,4.59904,2453.559,38.4860
2023-12-13T01:15:49,2420,42.8014,5.9826,13.2981,4.59905,2453.537,38.4864
2023-12-13T01:18:49,2420,42.8014,5.9826,13.2979,4.59906,2453.537,38.4867
2023-12-13T01:21:48,2420,42.8014,5.9826,13.2979,4.59903,2453.537,38.4864
2023-12-13T01:24:49,2420,42.8014,5.9826,13.2978,4.59906,2453.537,38.4868
2023-12-13T01:27:49,2420,42.8014,5.9826,13.2981,4.59904,2453.537,38.4863
2023-12-13T01:30:49,2420,42.8014,5.9826,13.2982,4.59904,2453.537,38.4863
2023-12-13T01:33:49,2420,42.8014,5.9826,13.2977,4.59905,2453.559,38.4868
2023-12-13T01:36:49,2420,42.8014,5.9826,13.2982,4.59906,2453.544,38.4864
2023-12-13T01:39:49,2420,42.8014,5.9826,13.2977,4.59905,2453.544,38.4868
2023-12-13T01:42:49,2420,42.8014,5.9826,13.2983,4.59904,2453.559,38.4861
2023-12-13T01:45:49,2420,42.8014,5.9826,13.2981,4.59906,2453.559,38.4866
2023-12-13T01:48:49,2420,42.8014,5.9826,13.2979,4.59905,2453.559,38.4866
2023-12-13T01:51:49,2420,42.8014,5.9826,13.2984,4.59906,2453.537,38.4862
2023-12-13T01:54:49,2420,42.8014,5.9826,13.2979,4.59906,2453.537,38.4866
2023-12-13T01:57:49,2420,42.8014,5.9826,13.2982,4.59904,2453.559,38.4863
2023-12-13T02:00:49,2420,42.8014,5.9826,13.2979,4.59906,2453.537,38.4867
2023-12-13T02:03:50,2420,42.8014,5.9826,13.2984,4.59906,2453.582,38.4862
2023-12-13T02:06:49,2420,42.8014,5.9826,13.2979,4.59907,2453.544,38.4868
2023-12-13T02:09:49,2420,42.8014,5.9826,13.2980,4.59907,2453.559,38.4867
2023-12-13T02:12:49,2420,42.8014,5.9826,13.2985,4.59906,2453.537,38.4861
2023-12-13T02:15:49,2420,42.8014,5.9826,13.2984,4.59907,2453.559,38.4863
2023-12-13T02:18:49,2420,42.8014,5.9826,13.2985,4.59906,2453.559,38.4861
2023-12-13T02:21:49,2420,42.8014,5.9826,13.2983,4.59906,2453.537,38.4864
2023-12-13T02:24:49,2420,42.8014,5.9826,13.2984,4.59906,2453.559,38.4862
2023-12-13T02:27:49,2420,42.8014,5.9826,13.2985,4.59908,2453.582,38.4864
2023-12-13T02:30:49,2420,42.8014,5.9826,13.2984,4.59906,2453.559,38.4862
2023-12-13T02:33:49,2420,42.8014,5.9826,13.2982,4.59907,2453.559,38.4865
2023-12-13T02:36:49,2420,42.8014,5.9826,13.2982,4.59907,2453.582,38.4865
2023-12-13T02:39:49,2420,42.8014,5.9826,13.2986,4.59906,2453.559,38.4860
2023-12-13T02:42:49,2420,42.8014,5.9826,13.2982,4.59906,2453.596,38.4865
2023-12-13T02:45:49,2420,42.8014,5.9826,13.2980,4.59906,2453.582,38.4866
2023-12-13T02:48:49,2420,42.8014,5.9826,13.2982,4.59906,2453.582,38.4865
2023-12-13T02:51:49,2420,42.8014,5.9826,13.2982,4.59906,2453.559,38.4865
2023-12-13T02:54:49,2420,42.8014,5.9826,13.2979,4.59907,2453.559,38.4868
2023-12-13T02:57:49,2420,42.8014,5.9826,13.2985,4.59908,2453.559,38.4863
2023-12-13T03:00:50,2420,42.8014,5.9826,13.2986,4.59908,2453.551,38.4862
2023-12-13T03:03:49,2420,42.8014,5.9826,13.2988,4.59907,2453.559,38.4860
2023-12-13T03:06:49,2420,42.8014,5.9826,13.2983,4.59907,2453.567,38.4864
2023-12-13T03:09:49,2420,42.8014,5.9826,13.2984,4.59906,2453.514,38.4863
2023-12-13T03:12:49,2420,42.8014,5.9826,13.2983,4.59908,2453.491,38.4866
2023-12-13T03:15:49,2420,42.8014,5.9826,13.2988,4.59907,2453.499,38.4860
2023-12-13T03:18:50,2420,42.8014,5.9826,13.2984,4.59908,2453.664,38.4864
2023-12-13T03:21:49,2420,42.8014,5.9826,13.2982,4.59910,2453.590,38.4868
2023-12-13T03:24:49,2420,42.8014,5.9826,13.2984,4.59908,2453.604,38.4864
2023-12-13T03:27:49,2420,42.8014,5.9826,13.2984,4.59910,2453.596,38.4866
2023-12-13T03:30:49,2420,42.8014,5.9826,13.2985,4.59906,2453.604,38.4861
2023-12-13T03:33:49,2420,42.8014,5.9826,13.2982,4.59906,2453.641,38.4865
2023-12-13T03:36:49,2420,42.8014,5.9826,13.2982,4.59906,2453.604,38.4865
2023-12-13T03:39:49,2420,42.8014,5.9826,13.2982,4.59906,2453.627,38.4864
2023-12-13T03:42:49,2420,42.8014,5.9826,13.2987,4.59908,2453.604,38.4861
2023-12-13T03:45:49,2420,42.8014,5.9826,13.2983,4.59907,2453.635,38.4864
2023-12-13T03:48:49,2420,42.8014,5.9826,13.2985,4.59908,2453.604,38.4863
2023-12-13T03:51:49,2420,42.8014,5.9826,13.2983,4.59908,2453.590,38.4865
2023-12-13T03:54:49,2420,42.8014,5.9826,13.2983,4.59906,2453.649,38.4863
2023-12-13T03:57:49,2420,42.8014,5.9826,13.2986,4.59908,2453.649,38.4862
2023-12-13T04:00:49,2420,42.8014,5.9826,13.2985,4.59908,2453.627,38.4863
2023-12-13T04:03:49,2420,42.8014,5.9826,13.2983,4.59909,2453.635,38.4866
2023-12-13T04:06:49,2420,42.8014,5.9826,13.2984,4.59907,2453.672,38.4863
2023-12-13T04:09:49,2420,42.8014,5.9826,13.2985,4.59909,2453.649,38.4864
2023-12-13T04:12:49,2420,42.8014,5.9826,13.2982,4.59908,2453.649,38.4866
2023-12-13T04:15:49,2420,42.8014,5.9826,13.2984,4.59906,2453.649,38.4861
2023-12-13T04:18:49,2420,42.8014,5.9826,13.2985,4.59911,2453.672,38.4866
2023-12-13T04:21:49,2420,42.8014,5.9826,13.2986,4.59914,2453.649,38.4867
2023-12-13T04:24:49,2420,42.8014,5.9826,13.2982,4.59909,2453.709,38.4867
2023-12-13T04:27:49,2420,42.8014,5.9826,13.2985,4.59908,2453.717,38.4862
2023-12-13T04:30:49,2420,42.8014,5.9826,13.2984,4.59907,2453.680,38.4863
2023-12-13T04:33:49,2420,42.8014,5.9826,13.2983,4.59908,2453.672,38.4864
2023-12-13T04:36:49,2420,42.8014,5.9826,13.2982,4.59909,2453.672,38.4866
2023-12-13T04:39:49,2420,42.8014,5.9826,13.2981,4.59910,2453.695,38.4868
2023-12-13T04:42:49,2420,42.8014,5.9826,13.2985,4.59909,2453.717,38.4864
2023-12-13T04:45:49,2420,42.8014,5.9826,13.2979,4.59909,2453.717,38.4869
2023-12-13T04:48:49,2420,42.8014,5.9826,13.2984,4.59915,2453.635,38.4870
2023-12-13T04:51:50,2420,42.8014,5.9826,13.2984,4.59910,2453.695,38.4865
2023-12-13T04:54:49,2420,42.8014,5.9826,13.2979,4.59911,2453.717,38.4871
2023-12-13T04:57:49,2420,42.8014,5.9826,13.2986,4.59910,2453.732,38.4863
2023-12-13T05:00:49,2420,42.8014,5.9826,13.2978,4.59909,2453.754,38.4870
2023-12-13T05:03:49,2420,42.8014,5.9826,13.2982,4.59911,2453.762,38.4868
2023-12-13T05:06:49,2420,42.8014,5.9826,13.2983,4.59920,2453.740,38.4875
2023-12-13T05:09:49,2420,42.8014,5.9826,13.2983,4.59912,2453.717,38.4868
2023-12-13T05:12:49,2420,42.8014,5.9826,13.2981,4.59913,2453.762,38.4871
2023-12-13T05:15:49,2420,42.8014,5.9826,13.2985,4.59910,2453.732,38.4864
2023-12-13T05:18:49,2420,42.8014,5.9826,13.2982,4.59917,2453.762,38.4875
2023-12-13T05:21:49,2420,42.8014,5.9826,13.2979,4.59911,2453.740,38.4871
2023-12-13T05:24:49,2420,42.8014,5.9826,13.2981,4.59909,2453.740,38.4867
2023-12-13T05:27:49,2420,42.8014,5.9826,13.2983,4.59923,2453.762,38.4878
2023-12-13T05:30:49,2420,42.8014,5.9826,13.2982,4.59909,2453.748,38.4867
2023-12-13T05:33:49,2420,42.8014,5.9826,13.2985,4.59909,2453.762,38.4864
2023-12-13T05:36:49,2420,42.8014,5.9826,13.2985,4.59913,2453.762,38.4867
2023-12-13T05:39:49,2420,42.8014,5.9826,13.2984,4.59911,2453.762,38.4866
2023-12-13T05:42:49,2420,42.8014,5.9826,13.2981,4.59913,2453.762,38.4871
2023-12-13T05:45:49,2420,42.8014,5.9826,13.2982,4.59912,2453.762,38.4870
2023-12-13T05:48:49,2420,42.8014,5.9826,13.2985,4.59909,2453.777,38.4864
2023-12-13T05:51:49,2420,42.8014,5.9826,13.2985,4.59915,2453.770,38.4869
2023-12-13T05:54:49,2420,42.8014,5.9826,13.2983,4.59917,2453.762,38.4872
2023-12-13T05:57:49,2420,42.8014,5.9826,13.2983,4.59910,2453.762,38.4866
2023-12-13T06:00:49,2420,42.8014,5.9826,13.2984,4.59917,2453.777,38.4872
2023-12-13T06:03:50,2420,42.8014,5.9826,13.2985,4.59928,2453.762,38.4881
2023-12-13T06:06:49,2420,42.8014,5.9826,13.3004,4.59940,2453.785,38.4873
2023-12-13T06:09:49,2420,42.8014,5.9826,13.2983,4.59927,2453.807,38.4882
2023-12-13T06:12:49,2420,42.8014,5.9826,13.2985,4.59921,2453.785,38.4875
2023-12-13T06:15:49,2420,42.8014,5.9826,13.3005,4.59922,2453.807,38.4855
2023-12-13T06:18:49,2420,42.8014,5.9826,13.2990,4.59931,2453.807,38.4879
2023-12-13T06:21:49,2420,42.8014,5.9826,13.2986,4.59946,2453.762,38.4896
2023-12-13T06:24:49,2420,42.8014,5.9826,13.3001,4.59969,2453.807,38.4904
2023-12-13T06:27:49,2420,42.8014,5.9826,13.3015,4.59960,2453.807,38.4882
2023-12-13T06:30:49,2420,42.8014,5.9826,13.3031,4.59963,2453.785,38.4868
2023-12-13T06:33:49,2420,42.8014,5.9826,13.3029,4.59982,2453.822,38.4888
2023-12-13T06:36:49,2420,42.8014,5.9826,13.3058,4.59945,2453.807,38.4825
2023-12-13T06:39:49,2420,42.8014,5.9826,13.3021,4.59994,2453.807,38.4908
2023-12-13T06:42:49,2420,42.8014,5.9826,13.3081,4.59957,2453.807,38.4813
2023-12-13T06:45:49,2420,42.8014,5.9826,13.3006,4.59948,2453.785,38.4880
2023-12-13T06:48:49,2420,42.8014,5.9826,13.2994,4.59946,2453.807,38.4889
2023-12-13T06:51:49,2420,42.8014,5.9826,13.2990,4.59937,2453.785,38.4884
2023-12-13T06:54:49,2420,42.8014,5.9826,13.2986,4.59933,2453.807,38.4885
2023-12-13T06:57:49,2420,42.8014,5.9826,13.2990,4.59957,2453.807,38.4904
2023-12-13T07:00:49,2420,42.8014,5.9826,13.2993,4.59956,2453.785,38.4899
2023-12-13T07:03:49,2420,42.8014,5.9826,13.3052,4.59940,2453.785,38.4826
2023-12-13T07:06:49,2420,42.8014,5.9826,13.3032,4.59960,2453.785,38.4865
2023-12-13T07:09:49,2420,42.8014,5.9826,13.3029,4.59961,2453.845,38.4869
2023-12-13T07:12:49,2420,42.8014,5.9826,13.3025,4.59988,2453.830,38.4898
2023-12-13T07:15:49,2420,42.8014,5.9826,13.3023,4.59980,2453.807,38.4893
2023-12-13T07:18:49,2420,42.8014,5.9826,13.3009,4.59982,2453.785,38.4909
2023-12-13T07:21:49,2420,42.8014,5.9826,13.3020,4.60083,2453.807,38.4993
2023-12-13T07:24:49,2420,42.8014,5.9826,13.3008,4.60255,2453.807,38.5168
2023-12-13T07:27:49,2420,42.8014,5.9826,13.2992,4.59970,2453.822,38.4913
2023-12-13T07:30:49,2420,42.8014,5.9826,13.3020,4.59974,2453.807,38.4890
2023-12-13T07:33:49,2420,42.8014,5.9826,13.3021,4.59974,2453.830,38.4888
2023-12-13T07:36:49,2420,42.8014,5.9826,13.3053,4.59981,2453.830,38.4864
2023-12-13T07:39:49,2420,42.8014,5.9826,13.3040,4.59994,2453.807,38.4888
2023-12-13T07:42:49,2420,42.8014,5.9826,13.3010,4.59944,2453.807,38.4872
2023-12-13T07:45:49,2420,42.8014,5.9826,13.3047,4.59986,2453.845,38.4874
2023-12-13T07:48:49,2420,42.8014,5.9826,13.3020,4.59972,2453.793,38.4888
2023-12-13T07:51:49,2420,42.8014,5.9826,13.3090,4.60028,2453.830,38.4871
2023-12-13T07:54:49,2420,42.8014,5.9826,13.2996,4.59985,2453.807,38.4924
2023-12-13T07:57:49,2420,42.8014,5.9826,13.3027,4.59977,2453.830,38.4885
2023-12-13T08:00:49,2420,42.8014,5.9826,13.2983,4.59931,2453.807,38.4886
2023-12-13T08:03:49,2420,42.8014,5.9826,13.2986,4.59983,2453.807,38.4932
2023-12-13T08:06:49,2420,42.8014,5.9826,13.3040,4.60018,2453.793,38.4911
2023-12-13T08:09:49,2420,42.8014,5.9826,13.3053,4.59984,2453.807,38.4867
2023-12-13T08:12:49,2420,42.8014,5.9826,13.3021,4.60011,2453.777,38.4924
2023-12-13T08:15:49,2420,42.8014,5.9826,13.3007,4.60002,2453.830,38.4929
2023-12-13T08:18:49,2420,42.8014,5.9826,13.3031,4.60025,2453.822,38.4926
2023-12-13T08:21:49,2420,42.8014,5.9826,13.3075,4.60065,2453.793,38.4921
2023-12-13T08:24:49,2420,42.8014,5.9826,13.3013,4.60014,2453.807,38.4934
2023-12-13T08:27:49,2420,42.8014,5.9826,13.3031,4.60052,2453.785,38.4952
2023-12-13T08:30:49,2420,42.8014,5.9826,13.3037,4.60049,2453.807,38.4944
2023-12-13T08:33:49,2420,42.8014,5.9826,13.3055,4.60201,2453.830,38.5069
2023-12-13T08:36:49,2420,42.8014,5.9826,13.3000,4.60022,2453.830,38.4956
2023-12-13T08:39:49,2420,42.8014,5.9826,13.2998,4.59994,2453.807,38.4930
2023-12-13T08:42:49,2420,42.8014,5.9826,13.3098,4.60026,2453.807,38.4861
2023-12-13T08:45:49,2420,42.8014,5.9826,13.3008,4.59990,2453.807,38.4917
2023-12-13T08:48:49,2420,42.8014,5.9826,13.3002,4.60007,2453.807,38.4939
2023-12-13T08:51:49,2420,42.8014,5.9826,13.2990,4.60003,2453.785,38.4947
2023-12-13T08:54:50,2420,42.8014,5.9826,13.2998,4.60022,2453.785,38.4957
2023-12-13T08:57:49,2420,42.8014,5.9826,13.3024,4.60024,2453.807,38.4933
2023-12-13T09:00:49,2420,42.8014,5.9826,13.2985,4.60072,2453.800,38.5017
2023-12-13T09:03:49,2420,42.8014,5.9826,13.2983,4.59970,2453.785,38.4923
2023-12-13T09:06:49,2420,42.8014,5.9826,13.3003,4.59981,2453.785,38.4913
2023-12-13T09:09:49,2420,42.8014,5.9826,13.2989,4.59990,2453.807,38.4935
2023-12-13T09:12:49,2420,42.8014,5.9826,13.2980,4.59954,2453.807,38.4911
2023-12-13T09:15:49,2420,42.8014,5.9826,13.2981,4.59950,2453.785,38.4906
2023-12-13T09:18:49,2420,42.8014,5.9826,13.2988,4.59942,2453.793,38.4891
2023-12-13T09:21:49,2420,42.8014,5.9826,13.3032,4.59962,2453.785,38.4866
2023-12-13T09:24:49,2420,42.8014,5.9826,13.2986,4.59939,2453.785,38.4891
2023-12-13T09:27:49,2420,42.8014,5.9826,13.2986,4.59943,2453.807,38.4895
2023-12-13T09:30:49,2420,42.8014,5.9826,13.2978,4.59957,2453.785,38.4915
2023-12-13T09:33:49,2420,42.8014,5.9826,13.2984,4.59943,2453.785,38.4897
2023-12-13T09:36:49,2420,42.8014,5.9826,13.2979,4.59933,2453.762,38.4892
2023-12-13T09:39:49,2420,42.8014,5.9826,13.2985,4.59931,2453.800,38.4885
2023-12-13T09:42:49,2420,42.8014,5.9826,13.2978,4.59932,2453.785,38.4892
2023-12-13T09:45:49,2420,42.8014,5.9826,13.2985,4.59948,2453.762,38.4901
2023-12-13T09:48:49,2420,42.8014,5.9826,13.2983,4.59946,2453.777,38.4900
2023-12-13T09:51:49,2420,42.8014,5.9826,13.2982,4.59941,2453.777,38.4897
2023-12-13T09:54:49,2420,42.8014,5.9826,13.2983,4.59949,2453.762,38.4903
2023-12-13T09:57:49,2420,42.8014,5.9826,13.2985,4.59949,2453.740,38.4901
2023-12-13T10:00:49,2420,42.8014,5.9826,13.2979,4.59944,2453.740,38.4902
2023-12-13T10:03:49,2420,42.8014,5.9826,13.2979,4.59938,2453.785,38.4896
2023-12-13T10:06:49,2420,42.8014,5.9826,13.2980,4.59934,2453.785,38.4892
2023-12-13T10:09:49,2420,42.8014,5.9826,13.2978,4.59951,2453.740,38.4911
2023-12-13T10:12:49,2420,42.8014,5.9826,13.2984,4.59937,2453.740,38.4890
2023-12-13T10:15:49,2420,42.8014,5.9826,13.2986,4.59929,2453.717,38.4882
2023-12-13T10:18:49,2420,42.8014,5.9826,13.2982,4.59950,2453.762,38.4905
2023-12-13T10:21:49,2420,42.8014,5.9826,13.2981,4.59934,2453.740,38.4891
2023-12-13T10:24:49,2420,42.8014,5.9826,13.2983,4.59946,2453.740,38.4900
2023-12-13T10:27:49,2420,42.8014,5.9826,13.2985,4.59949,2453.717,38.4902
2023-12-13T10:30:49,2420,42.8014,5.9826,13.2989,4.59933,2453.717,38.4882
2023-12-13T10:33:49,2420,42.8014,5.9826,13.3004,4.59959,2453.740,38.4892
2023-12-13T10:36:49,2420,42.8014,5.9826,13.2979,4.59928,2453.717,38.4887
2023-12-13T10:39:49,2420,42.8014,5.9826,13.2981,4.59931,2453.732,38.4889
2023-12-13T10:42:49,2420,42.8014,5.9826,13.2979,4.59937,2453.740,38.4896
2023-12-13T10:45:49,2420,42.8014,5.9826,13.2981,4.59933,2453.754,38.4890
2023-12-13T10:48:49,2420,42.8014,5.9826,13.2985,4.59942,2453.717,38.4895
2023-12-13T10:51:49,2420,42.8014,5.9826,13.2977,4.59962,2453.702,38.4922
2023-12-13T10:54:49,2420,42.8014,5.9826,13.2978,4.59946,2453.717,38.4905
2023-12-13T10:57:49,2420,42.8014,5.9826,13.2982,4.59934,2453.695,38.4891
2023-12-13T11:00:49,2420,42.8014,5.9826,13.2977,4.59937,2453.695,38.4898
2023-12-13T11:03:49,2420,42.8014,5.9826,13.2979,4.59969,2453.754,38.4926
2023-12-13T11:06:49,2420,42.8014,5.9826,13.2980,4.59937,2453.717,38.4895
2023-12-13T11:09:49,2420,42.8014,5.9826,13.2980,4.59952,2453.717,38.4909
2023-12-13T11:12:49,2420,42.8014,5.9826,13.2981,4.59948,2453.695,38.4904
2023-12-13T11:15:49,2420,42.8014,5.9826,13.2979,4.59946,2453.695,38.4905
2023-12-13T11:18:49,2420,42.8014,5.9826,13.2982,4.59940,2453.680,38.4896
2023-12-13T11:21:49,2420,42.8014,5.9826,13.2985,4.59957,2453.695,38.4909
2023-12-13T11:24:49,2420,42.8014,5.9826,13.2979,4.59958,2453.695,38.4915
2023-12-13T11:27:49,2420,42.8014,5.9826,13.2980,4.59950,2453.740,38.4907
2023-12-13T11:30:50,2420,42.8014,5.9826,13.2979,4.59946,2453.717,38.4905
2023-12-13T11:33:49,2420,42.8014,5.9826,13.2979,4.59968,2453.717,38.4925
2023-12-13T11:36:49,2420,42.8014,5.9826,13.2981,4.59956,2453.740,38.4912
2023-12-13T11:39:49,2420,42.8014,5.9826,13.2983,4.59949,2453.695,38.4903
2023-12-13T11:42:49,2420,42.8014,5.9826,13.2982,4.59941,2453.709,38.4897
2023-12-13T11:45:49,2420,42.8014,5.9826,13.2985,4.59941,2453.695,38.4894
2023-12-13T11:48:49,2420,42.8014,5.9826,13.2980,4.59955,2453.695,38.4912
2023-12-13T11:51:49,2420,42.8014,5.9826,13.2984,4.59937,2453.695,38.4891
2023-12-13T11:54:49,2420,42.8014,5.9826,13.2983,4.59935,2453.687,38.4890
2023-12-13T11:57:49,2420,42.8014,5.9826,13.2981,4.59940,2453.717,38.4897
2023-12-13T12:00:49,2420,42.8014,5.9826,13.2982,4.59961,2453.672,38.4916
2023-12-13T12:03:49,2420,42.8014,5.9826,13.2976,4.59938,2453.695,38.4900
2023-12-13T12:06:49,2420,42.8014,5.9826,13.2979,4.59934,2453.695,38.4893
2023-12-13T12:09:49,2420,42.8014,5.9826,13.2985,4.59934,2453.672,38.4888
2023-12-13T12:12:49,2420,42.8014,5.9826,13.2984,4.59939,2453.672,38.4893
2023-12-13T12:15:49,2420,42.8014,5.9826,13.2981,4.59928,2453.672,38.4886
2023-12-13T12:18:49,2420,42.8014,5.9826,13.2978,4.59932,2453.664,38.4892
2023-12-13T12:21:49,2420,42.8014,5.9826,13.2981,4.59930,2453.695,38.4887
2023-12-13T12:24:49,2420,42.8014,5.9826,13.2982,4.59929,2453.649,38.4886
2023-12-13T12:27:49,2420,42.8014,5.9826,13.2980,4.59934,2453.649,38.4892
2023-12-13T12:30:49,2420,42.8014,5.9826,13.2980,4.59932,2453.672,38.4890
2023-12-13T12:33:49,2420,42.8014,5.9826,13.2980,4.59930,2453.649,38.4889
2023-12-13T12:36:49,2420,42.8014,5.9826,13.2982,4.59940,2453.649,38.4897
2023-12-13T12:39:49,2420,42.8014,5.9826,13.2979,4.59942,2453.672,38.4900
2023-12-13T12:42:49,2420,42.8014,5.9826,13.2983,4.59934,2453.672,38.4890
2023-12-13T12:45:49,2420,42.8014,5.9826,13.2983,4.59923,2453.635,38.4878
2023-12-13T12:48:49,2420,42.8014,5.9826,13.2984,4.59926,2453.695,38.4880
2023-12-13T12:51:49,2420,42.8014,5.9826,13.2979,4.59929,2453.672,38.4888
2023-12-13T12:54:49,2420,42.8014,5.9826,13.2982,4.59934,2453.649,38.4891
2023-12-13T12:57:49,2420,42.8014,5.9826,13.2978,4.59932,2453.612,38.4892
2023-12-13T13:00:49,2420,42.8014,5.9826,13.2977,4.59931,2453.627,38.4893
2023-12-13T13:03:49,2420,42.8014,5.9826,13.2981,4.59932,2453.649,38.4890
2023-12-13T13:06:49,2420,42.8014,5.9826,13.2983,4.59953,2453.649,38.4907
2023-12-13T13:09:49,2420,42.8014,5.9826,13.2981,4.59952,2453.649,38.4908
2023-12-13T13:12:49,2420,42.8014,5.9826,13.2984,4.59926,2453.627,38.4880
2023-12-13T13:15:49,2420,42.8014,5.9826,13.2980,4.59920,2453.627,38.4879
2023-12-13T13:18:49,2420,42.8014,5.9826,13.2981,4.59920,2453.649,38.4878
2023-12-13T13:21:49,2420,42.8014,5.9826,13.2977,4.59920,2453.641,38.4882
2023-12-13T13:24:49,2420,42.8014,5.9826,13.2979,4.59922,2453.627,38.4881
2023-12-13T13:27:49,2420,42.8014,5.9826,13.2979,4.59937,2453.627,38.4896
2023-12-13T13:30:49,2420,42.8014,5.9826,13.2975,4.59920,2453.627,38.4884
2023-12-13T13:33:49,2420,42.8014,5.9826,13.2979,4.59940,2453.627,38.4898
2023-12-13T13:36:49,2420,42.8014,5.9826,13.2978,4.59922,2453.627,38.4883
2023-12-13T13:39:49,2420,42.8014,5.9826,13.2982,4.59926,2453.649,38.4883
2023-12-13T13:42:49,2420,42.8014,5.9826,13.2978,4.59920,2453.604,38.4881
2023-12-13T13:45:49,2420,42.8014,5.9826,13.2983,4.59929,2453.635,38.4885
2023-12-13T13:48:49,2420,42.8014,5.9826,13.2983,4.59919,2453.627,38.4875
2023-12-13T13:51:49,2420,42.8014,5.9826,13.2980,4.59940,2453.649,38.4897
2023-12-13T13:54:49,2420,42.8014,5.9826,13.2981,4.59926,2453.612,38.4884
2023-12-13T13:57:49,2420,42.8014,5.9826,13.2982,4.59920,2453.649,38.4878
2023-12-13T14:00:49,2420,42.8014,5.9826,13.2978,4.59928,2453.627,38.4888
2023-12-13T14:03:49,2420,42.8014,5.9826,13.2979,4.59930,2453.619,38.4889
2023-12-13T14:06:49,2420,42.8014,5.9826,13.2978,4.59920,2453.590,38.4881
2023-12-13T14:09:49,2420,42.8014,5.9826,13.2979,4.59936,2453.604,38.4895
2023-12-13T14:12:49,2420,42.8014,5.9826,13.2982,4.59912,2453.604,38.4870
2023-12-13T14:15:49,2420,42.8014,5.9826,13.2979,4.59910,2453.604,38.4871
2023-12-13T14:18:49,2420,42.8014,5.9826,13.2981,4.59918,2453.604,38.4877
2023-12-13T14:21:49,2420,42.8014,5.9826,13.2982,4.59914,2453.619,38.4871
2023-12-13T14:24:49,2420,42.8014,5.9826,13.2982,4.59922,2453.604,38.4879
2023-12-13T14:27:49,2420,42.8014,5.9826,13.2982,4.59922,2453.604,38.4879
2023-12-13T14:30:49,2420,42.8014,5.9826,13.2981,4.59923,2453.604,38.4881
2023-12-13T14:33:49,2420,42.8014,5.9826,13.2978,4.59931,2453.627,38.4892
2023-12-13T14:36:49,2420,42.8014,5.9826,13.2983,4.59917,2453.649,38.4873
2023-12-13T14:39:49,2420,42.8014,5.9826,13.2983,4.59920,2453.627,38.4876
2023-12-13T14:42:49,2420,42.8014,5.9826,13.2982,4.59940,2453.590,38.4896
2023-12-13T14:45:49,2420,42.8014,5.9826,13.2981,4.59914,2453.627,38.4872
2023-12-13T14:48:49,2420,42.8014,5.9826,13.2984,4.59914,2453.582,38.4869
2023-12-13T14:51:49,2420,42.8014,5.9826,13.2979,4.59917,2453.627,38.4877
2023-12-13T14:54:49,2420,42.8014,5.9826,13.2981,4.59922,2453.627,38.4881
2023-12-13T14:57:49,2420,42.8014,5.9826,13.2979,4.59973,2453.627,38.4930
2023-12-13T15:00:49,2420,42.8014,5.9826,13.2978,4.59917,2453.604,38.4878
2023-12-13T15:03:49,2420,42.8014,5.9826,13.2980,4.59928,2453.627,38.4887
2023-12-13T15:06:49,2420,42.8014,5.9826,13.2982,4.59929,2453.627,38.4886
2023-12-13T15:09:49,2420,42.8014,5.9826,13.2982,4.59938,2453.627,38.4894
2023-12-13T15:12:49,2420,42.8014,5.9826,13.2982,4.59928,2453.649,38.4885
2023-12-13T15:15:49,2420,42.8014,5.9826,13.2979,4.59940,2453.590,38.4898
2023-12-13T15:18:49,2420,42.8014,5.9826,13.2979,4.59956,2453.627,38.4913
2023-12-13T15:21:49,2420,42.8014,5.9826,13.2978,4.59933,2453.627,38.4894
2023-12-13T15:24:49,2420,42.8014,5.9826,13.2979,4.59936,2453.627,38.4895
2023-12-13T15:27:49,2420,42.8014,5.9826,13.2985,4.59928,2453.649,38.4882
2023-12-13T15:30:49,2420,42.8014,5.9826,13.2978,4.59926,2453.627,38.4887
2023-12-13T15:33:49,2420,42.8014,5.9826,13.2978,4.59929,2453.641,38.4890
2023-12-13T15:36:49,2420,42.8014,5.9826,13.2979,4.59968,2453.649,38.4925
2023-12-13T15:39:49,2420,42.8014,5.9826,13.2980,4.59942,2453.635,38.4900
2023-12-13T15:42:49,2420,42.8014,5.9826,13.2979,4.59931,2453.649,38.4890
2023-12-13T15:45:49,2420,42.8014,5.9826,13.2984,4.59936,2453.649,38.4890
2023-12-13T15:48:49,2420,42.8014,5.9826,13.2982,4.59948,2453.627,38.4903
2023-12-13T15:51:49,2420,42.8014,5.9826,13.2980,4.59941,2453.635,38.4899
2023-12-13T15:54:49,2420,42.8014,5.9826,13.2978,4.59956,2453.649,38.4915
2023-12-13T15:57:49,2420,42.8014,5.9826,13.2978,4.59966,2453.649,38.4925
2023-12-13T16:00:49,2420,42.8014,5.9826,13.2979,4.59943,2453.649,38.4902
2023-12-13T16:03:49,2420,42.8014,5.9826,13.2979,4.59931,2453.664,38.4890